Espace membre
Imprimable
Challenges > Delhalle - Amay, 13/09/2015, BEL - Le Semi-Vert d'Amay
Liste des rapports > Delhalle - 21 km - Classement
Recherche: Page: [1]
91 Entrées
 
Les réclamations ne sont plus acceptées, les résultats sont considérés comme définitifs.
RangNrNomAgeIOCLigueEquipeRéelTempsTkmMoy.ScrPtsLocalité
1.19LOQUET THOMAS32BELETCHIEVR1:15:421:15:423:37 16.6511194CHIEVRES
2.668OUMAROU YAHAYA28BELCSFMYSTERE1:18:321:18:333:45 16.0421150ANDERLECHT
3.925ROELS JONAS32BELEAWATERMOLEN SP1:19:581:19:583:49 15.7631128HAMME
4.5732RENARD ARNAUD30BELWACO1:22:051:22:053:55 15.3561096
5.845NICODEME THIBAULT23BELRESC1:25:041:25:054:04 14.8171053BRUXELLES
6.913BOUGHRAD MOHAMED35BELCSFMYSTERE1:25:361:25:364:05 14.7281045BRUXELLES
7.4633MERTENS HANNES28BEL1:26:381:26:384:08 14.54111029
8.7014RODRIQUE HERVÉ20BELP81:26:411:26:414:08 14.54121028ANTHEIT
9.4657FRANCOIS BERTRAND34BEL1:28:471:28:524:14 14.1814998
10.5771SMEYERS NICOLAS24BELPEGASUSTEAM1:29:271:29:294:16 14.0816987
11.219KOLP VINCENT28BEL1:29:371:29:404:17 14.0518984BRUXELLES
12.763GHILAIN OLIVIER35BELKURISTO1:30:261:30:274:19 13.9320971WEZEMBEEK OPPEM
13.348DEMUYSER CHRISTOPHE31BELSPTWAVRE1:32:541:32:584:26 13.5525936COURT-SAINT-ETIENNE
14.7016ROLLAND THOMAS21BEL1:34:021:34:024:29 13.4030918HUY
15.5985MUGNIER BENOIT29BELOLYMPIQUE LYONNAIS1:34:021:34:084:29 13.3931917
16.5789HANOT THOMAS26BEL1:34:071:34:154:30 13.3732915
17.387BOSKIN BERNARD27BEL1:35:061:35:214:33 13.2236900STAVELOT
18.4917COLLIN LAURENT39BELFCHA1:35:321:35:334:33 13.1937893
19.778MINETTE SEBASTIEN35BELATCC1:35:511:35:524:34 13.1539888CHATELINEAU
20.7010RIGUELLE FRANÇOIS34BELFLEUPOTOS ROSES1:37:111:37:154:38 12.9648864LIGNY
21.5905BIONDOLILLO GABRIEL38BEL1:37:221:37:254:39 12.9449861
22.985CIEPERS JOHNNY23BELCRAZY MONKEY1:36:411:37:314:39 12.9250869GOCHENÉE
23.791DEPEAUW OLIVIER36BEL1:37:441:38:034:41 12.8555852LEGLISE
24.4706VANHEES JEAN29BELFCHA1:38:311:38:314:42 12.7956842
25.889LECRENIER BENJAMIN31BELFLEUFLEU1:38:351:38:454:43 12.7657840FRANIERE
26.7038WUESTENBERGS DAVID37BEL1:39:151:39:164:44 12.6959830ANDENNE
27.7033VASSART QUENTIN31BELPUISSANCE HUY'T1:38:521:39:174:44 12.6960834HUY
28.6935DE MEERSMAN THIBAUT36BELCARACO'TRAILERS1:39:051:39:194:44 12.6961831MARCHOVELETTE
29.6985MARCHAL OLIVIER39BEL1:40:151:40:394:48 12.5265814JEHAY
30.5898GUIOT CEDRIC39BEL1:40:461:40:494:49 12.5068805
31.4486THIRY GILLES29BEL1:40:311:41:054:49 12.4769807
32.4560ZINK PHILIPPE39BEL1:42:091:42:124:52 12.3377782
33.7021SIMONET CHRISTOPHE31BELRUNNING TEAM CONDROZ1:42:141:42:214:53 12.31797794570
34.5971BARON FERNANDO36BEL1:43:241:43:454:57 12.1483763
35.545RENARD RAPHAEL29BELJCPMF TENNEVILL1:43:591:44:014:58 12.1184755CHAMPLON
36.5968PINCKAERS CHRISTOPHE33BELLES MORSES1:44:091:44:304:59 12.0686752
37.4997LEUNEN CHRISTOPHE37BELTEAM BELGIUM1:44:571:45:095:01 11.9892738
38.5947CAMBIER ETIENNE37BEL1:45:541:46:065:04 11.8897723
39.5949DORMAL STEPHANE37BELGSK FUNCLUB1:45:561:46:085:04 11.8798722
40.6912BURTON PIERRE33BELJOG & DRINK1:46:121:46:225:04 11.8599718SEILLES
41.7036VERTONGHEN CHRISTOPHER30BEL1:46:281:47:135:07 11.75105710BRAIVES
42.5989WOJCIK VINCENT32BELSPITEUX1:47:371:47:385:08 11.71110693
43.7009RICHEL LUDOVIC30BEL1:48:441:48:545:12 11.57120673PLEINEVEAUX
44.4822JOIRIS ERIC35BELJETT1:48:381:49:165:13 11.53122672
45.75ADANS JULIEN30BELRCNAMUR1:49:301:49:435:14 11.49128658LEUZE
46.6979LANGE FABIEN39BEL1:50:321:50:485:17 11.37137639LIÈGE 2
47.5844HAUTRIVE GERALD38BELRUNNING TEAM CONDROZ1:50:441:50:515:17 11.37138637
48.6082PASCOLO JULIEN22BEL1:50:561:50:565:17 11.36140633
49.6081D'ADDAZIO JORDAN22BEL1:51:271:51:275:19 11.31145623
50.6986MAROT JEAN35BEL1:51:291:51:305:19 11.30146622HUY
51.5914LAMBERT MARIUS20BEL1:53:131:53:325:25 11.10162591
52.26DRAMAIX SYLVAIN36BELLA FORESTIE1:54:151:54:435:28 10.98172571HERCHIES
53.4810ROBA FRANCOIS27BELRUNNING TEAM CONDROZ1:54:491:54:565:29 10.96173565
54.4787GUILMAIN JEROME38BELEOLES1:54:351:55:135:30 10.94174566
55.6975LALLEMANT JOACHIM29BEL1:55:431:56:025:32 10.86181549VIELSALM
56.6906BLOMME BRAM32BEL1:55:201:56:045:32 10.86182552HALLE
57.7004PERVEUX OLIVIER37BELLA FORESTIÈRE1:55:461:56:165:33 10.84186544MASNUY-ST-PIERRE
58.6976LALLEMANT JONATHAN35BEL1:56:021:56:215:33 10.83188540TROIS-PONTS
59.820BIENFAIT QUENTIN37BELMSF1:56:151:56:325:33 10.81190536BRAY
60.6989MASY SÉBASTIEN38BEL1:56:221:56:445:34 10.79193532WANZE
61.6921COENRAETS GILLES38BEL1:56:021:57:005:35 10.77195534BRUXELLES
62.4984MORTELÉ MALORY24BELUNION HUY BASKET1:57:181:57:205:36 10.74198519AMAY
63.4473CARDON THOMAS38BEL1:57:211:57:315:36 10.72204513
64.5929ROCOUR BERTRAND25BEL1:57:571:58:085:38 10.67209503
65.4500BARRIAT PIERRE YVES33BEL1:58:401:59:195:41 10.56216490
66.6943DOR ALEXIS39BELRFCL RUN LOISIR1:58:501:59:215:41 10.56217488ALLEUR
67.7039WUESTENBERGS JEAN-MI39BEL1:59:511:59:525:43 10.51222474ANDENNE
68.266MUNAUT JEREMY38BELRCNAMUR1:59:062:00:015:43 10.50223480TOHOGNE
69.5791DESCHEEMAEKER JÉRÔME26BELJCHSHJCHSH1:59:152:00:055:44 10.49224478
70.5910DETRIXHE CHRISTOPHE39BELWAC2:01:522:02:025:49 10.33238441
71.6959GYEN MICHAËL38BELLES EOLES2:01:342:02:135:50 10.31242440VILLERS-LE-BOUILLET
72.6901ALHADEFF LAURENT38BEL2:02:222:03:055:52 10.24249427BRUXELLES
73.6010SIMON GIL38BEL2:04:012:04:135:55 10.14268395
74.6932DECLOUX GILLES38BEL2:05:592:06:026:01 10.00278368MARNEFFE
75.6936DENAYER SÉBASTIEN31BELLES FRELONS2:06:272:07:046:04 9.92281362ANTHEIT
76.6941DEWINTER FRÉDÉRIC39BEL2:07:432:07:516:06 9.86287345FOREST
77.4817NAUTS THIERRY33BELJCCS2:08:422:09:246:10 9.74298327
78.6934DELBECQ LUDOVIC34BEL2:09:042:10:026:12 9.69304318BRUXELLES
79.7020SEGUIDO ALVAREZ FRANCISCO39ESPRUN'ESSENCE2:10:122:10:246:13 9.66306306COUTHUIN
80.6947FETT THOMAS38BELLES FRELONS2:10:132:10:316:13 9.65308304AMPSIN
81.940MAAS STIJN38BEL2:15:012:15:216:27 9.31328246LAKEN
82.4639DURANT ROMAIN20BEL2:16:162:16:226:30 9.24331233
83.6926COUTURIER RÉMI39BEL2:18:252:18:436:37 9.08346202VIEUX WALEFFE
84.6046BOUCARD GEOFFROY30FRASER ATHL2:19:572:20:456:43 8.95351185
85.4943MODAERT DIMITRY39BEL2:21:442:22:006:46 8.87353168
86.6068DEMARET BENOIT38BEL2:25:522:26:477:00 8.58368122
87.6962HARDY KENNY34BELRUN'ESSENCE2:26:232:27:047:01 8.57369117HERMALLE SOUS HUY
88.6964HELAIN MICHAEL32BEL2:28:052:28:217:04 8.49373100BAS-OHA
89.7001PASTORI VINCENT38BEL2:28:382:29:077:07 8.4537694BONNEVILLE
90.6933DE GRONCKEL DAVID39BELJCPMF AMAY2:28:532:29:557:09 8.4038187AMAY
DNF6078PONCIN VINCENT39BELCLAVIER
DNF: abandon; DSQ: disqualifié; Vitesse en km/h
Page: [1]